Time,TemperatureF,DewpointF,PressureIn,WindDirection,WindDirectionDegrees,WindSpeedMPH,WindSpeedGustMPH,Humidity,HourlyPrecipIn,Conditions,Clouds,dailyrainin,SoftwareType,DateUTC
2014-04-23 00:23:00,46.0,33.0,29.91,NNE,29,1.0,17.0,61,0.00,,,0.01,,2014-04-23 04:23:00,
2014-04-23 00:54:00,45.0,34.0,29.91,NW,313,0.0,4.0,64,0.00,,,0.01,,2014-04-23 04:54:00,
2014-04-23 01:02:00,45.0,34.0,29.91,NW,313,0.0,4.0,64,0.00,,,0.01,,2014-04-23 05:02:00,
2014-04-23 01:23:00,44.0,34.0,29.92,West,272,0.0,4.0,67,0.00,,,0.01,,2014-04-23 05:23:00,
2014-04-23 01:34:00,44.0,34.0,29.92,West,272,0.0,4.0,67,0.00,,,0.01,,2014-04-23 05:34:00,
2014-04-23 01:52:00,44.0,34.0,29.92,NNW,330,0.0,3.0,68,0.00,,,0.01,,2014-04-23 05:52:00,
2014-04-23 02:02:00,44.0,34.0,29.92,NNW,330,0.0,3.0,68,0.00,,,0.01,,2014-04-23 06:02:00,
2014-04-23 02:22:00,43.0,34.0,29.92,WNW,302,0.0,3.0,71,0.00,,,0.01,,2014-04-23 06:22:00,
2014-04-23 02:42:00,42.0,34.0,29.92,WNW,299,0.0,3.0,72,0.00,,,0.00,,2014-04-23 06:42:00,
2014-04-23 02:53:00,42.0,34.0,29.92,WNW,299,0.0,3.0,72,0.00,,,0.00,,2014-04-23 06:53:00,
2014-04-23 03:12:00,41.0,34.0,29.92,WNW,302,0.0,3.0,75,0.00,,,0.00,,2014-04-23 07:12:00,
2014-04-23 03:22:00,41.0,34.0,29.92,WNW,302,0.0,3.0,75,0.00,,,0.00,,2014-04-23 07:22:00,
2014-04-23 03:52:00,41.0,34.0,29.93,WNW,293,0.0,2.0,75,0.00,,,0.00,,2014-04-23 07:52:00,
2014-04-23 04:02:00,41.0,34.0,29.93,WNW,293,0.0,2.0,75,0.00,,,0.00,,2014-04-23 08:02:00,
2014-04-23 04:22:00,40.0,33.0,29.94,WNW,296,0.0,2.0,77,0.00,,,0.00,,2014-04-23 08:22:00,
2014-04-23 04:32:00,40.0,33.0,29.94,WNW,296,0.0,2.0,77,0.00,,,0.00,,2014-04-23 08:32:00,
2014-04-23 04:52:00,39.0,33.0,29.93,NW,311,0.0,3.0,79,0.00,,,0.00,,2014-04-23 08:52:00,
2014-04-23 05:22:00,38.0,32.0,29.95,WNW,284,1.0,3.0,80,0.00,,,0.00,,2014-04-23 09:22:00,
2014-04-23 05:33:00,38.0,32.0,29.95,WNW,284,1.0,3.0,80,0.00,,,0.00,,2014-04-23 09:33:00,
2014-04-23 05:54:00,38.0,32.0,29.95,WNW,284,1.0,3.0,80,0.00,,,0.00,,2014-04-23 09:54:00,
2014-04-23 06:23:00,39.0,33.0,29.96,NNE,25,2.0,0.0,78,0.00,,,0.00,,2014-04-23 10:23:00,
2014-04-23 06:33:00,39.0,33.0,29.96,NNE,25,2.0,0.0,78,0.00,,,0.00,,2014-04-23 10:33:00,
2014-04-23 06:53:00,39.0,33.0,29.96,NNE,25,2.0,0.0,78,0.00,,,0.00,,2014-04-23 10:53:00,
2014-04-23 07:12:00,38.0,32.0,30.00,WNW,299,1.0,7.0,79,0.00,,,0.00,,2014-04-23 11:12:00,
2014-04-23 07:23:00,38.0,32.0,29.99,NNW,338,1.0,7.0,78,0.00,,,0.00,,2014-04-23 11:23:00,
2014-04-23 07:43:00,38.0,32.0,30.00,WNW,299,1.0,7.0,79,0.00,,,0.00,,2014-04-23 11:43:00,
2014-04-23 07:52:00,38.0,32.0,30.00,WNW,299,1.0,7.0,79,0.00,,,0.00,,2014-04-23 11:52:00,
2014-04-23 08:01:00,38.0,32.0,30.00,WNW,299,1.0,7.0,79,0.00,,,0.00,,2014-04-23 12:01:00,
2014-04-23 09:22:00,43.0,34.0,30.04,WNW,303,3.0,7.0,69,0.00,,,0.00,,2014-04-23 13:22:00,
2014-04-23 09:52:00,43.0,32.0,30.05,WNW,300,1.0,10.0,65,0.00,,,0.00,,2014-04-23 13:52:00,
2014-04-23 10:02:00,43.0,32.0,30.05,WNW,300,1.0,10.0,65,0.00,,,0.00,,2014-04-23 14:02:00,
2014-04-23 10:22:00,45.0,33.0,30.06,NW,306,3.0,10.0,63,0.00,,,0.00,,2014-04-23 14:22:00,
2014-04-23 10:32:00,45.0,33.0,30.06,NW,306,3.0,10.0,63,0.00,,,0.00,,2014-04-23 14:32:00,
2014-04-23 10:52:00,46.0,33.0,30.06,NW,323,2.0,10.0,61,0.00,,,0.00,,2014-04-23 14:52:00,
2014-04-23 11:02:00,46.0,33.0,30.06,NW,323,2.0,10.0,61,0.00,,,0.00,,2014-04-23 15:02:00,